Weather in Ovadnoe

Ukraine / Volyn Oblast     50°55′32″N   24°23′33″E
temp.,
°C
wind,
m/s
gust,
m/s
humid.,
%
clouds,
%
prec.,
mm/h
press.,
hPa
HPBL,
m
13 may, thu
thu1300:00+8se412760 0.0 1010322
03:00+6ese410850 0.0 1009185
06:00+5ese410875 0.0 1007207
09:00+11se687237 0.0 1005521
12:00+16se676482 0.0 10031246
15:00+14sse6777100 0.0 1002874
18:00+15sse3782100 0.1 1000558
21:00+13sse3690100 0.1 1001170
14 may, fri
fri1400:00+12s41094100 0.2 1001308
03:00+11s51191100 0.2 1001384
06:00+9s512905 0.0 1002334
09:00+13ssw6107598 0.0 1002790
12:00+15ssw7968100 0.1 10031342
15:00+16ssw676683 0.1 10041268
18:00+13sw667541 0.1 1005848
21:00+10ssw3490100 0.1 1005170
15 may, sat
sat1500:00+11wnw61090100 0.3 1006618
03:00+10w51094100 1.4 1007528
06:00+9w5109395 2.2 1008377
09:00+11w478773 2.3 1009432
12:00+13wsw447593 0.0 1010896
15:00+15w446997 0.3 10101087
18:00+16wsw2265100 0.2 10091044
21:00+12sw228593 0.3 101031
16 may, sun
sun1600:00+9sse2290100 0.0 101015
03:00+8se339036 0.0 101023
06:00+9ese3490100 0.0 101073
09:00+14se5878100 0.2 1009343
12:00+18se7967100 0.3 10081054
15:00+16sse61082100 0.8 1007923
18:00+15se51182100 0.3 1006613
21:00+13ese41094100 0.3 1005222
17 may, mon
mon1700:00+12s349457 0.0 100478
03:00+12sse3596100 0.5 1005128
06:00+11sw2594100 0.9 1004131
09:00+11sw3598100 1.3 1005279
12:00+14wnw6791100 0.7 1005650
15:00+13wnw6886100 0.9 1005578
18:00+16wnw566710 0.1 10051097
21:00+12wsw11845 0.1 100510